Location: Unspecified
(64.9000°N, 0.0000°E)
Time: 02:24:00
(UTC+00:00)

Altair - Pass Details

Date: 25 June 2019
Orbit: 1501 x 1683 km, 47.2° (Epoch: 22 July)

Event Time Altitude Azimuth Distance (km) Brightness Sun altitude
Rises 01:50:47 0° 273° (W) 4,839 9.9 0.7°
Reaches altitude 10° 01:56:39 10° 246° (WSW) 3,889 9.2 1.0°
Maximum altitude 01:59:56 12° 226° (SW) 3,737 9.0 1.2°
Drops below altitude 10° 02:03:14 10° 207° (SSW) 3,920 9.0 1.3°
Sets 02:09:14 0° 180° (S) 4,924 9.6 1.6°
